TimeMST,TemperatureF,Dew PointF,Humidity,Sea Level PressureIn,VisibilityMPH,Wind Direction,Wind SpeedMPH,Gust SpeedMPH,PrecipitationIn,Events,Conditions,WindDirDegrees,DateUTC
12:53 AM,26.1,19.9,78,29.75,10.0,SW,3.5,-,N/A,,Scattered Clouds,220,2013-01-08 07:53:00
1:53 AM,27.0,19.0,72,29.77,10.0,SSW,4.6,-,N/A,,Clear,200,2013-01-08 08:53:00
2:53 AM,28.0,19.9,72,29.78,10.0,South,3.5,-,N/A,,Overcast,190,2013-01-08 09:53:00
3:53 AM,35.1,19.9,54,29.77,10.0,West,9.2,-,N/A,,Mostly Cloudy,260,2013-01-08 10:53:00
4:53 AM,37.9,21.0,51,29.81,10.0,West,16.1,-,N/A,,Overcast,270,2013-01-08 11:53:00
5:53 AM,37.9,19.0,47,29.82,10.0,West,16.1,-,N/A,,Scattered Clouds,280,2013-01-08 12:53:00
6:53 AM,37.0,21.9,54,29.85,10.0,West,12.7,-,N/A,,Unknown,270,2013-01-08 13:53:00
7:53 AM,39.0,19.9,46,29.86,10.0,West,12.7,-,N/A,,Overcast,280,2013-01-08 14:53:00
8:53 AM,37.0,21.9,54,29.90,10.0,West,9.2,-,N/A,,Overcast,280,2013-01-08 15:53:00
9:53 AM,39.9,21.0,47,29.92,10.0,West,12.7,-,N/A,,Overcast,270,2013-01-08 16:53:00
10:53 AM,39.9,23.0,51,29.94,10.0,NNW,9.2,-,N/A,,Overcast,330,2013-01-08 17:53:00
11:53 AM,41.0,21.0,45,29.92,10.0,NW,16.1,-,N/A,,Overcast,320,2013-01-08 18:53:00
12:53 PM,42.1,19.9,41,29.94,10.0,NNW,21.9,26.5,N/A,,Overcast,330,2013-01-08 19:53:00
1:53 PM,41.0,19.9,43,29.96,10.0,NW,24.2,32.2,N/A,,Mostly Cloudy,320,2013-01-08 20:53:00
2:53 PM,41.0,19.9,43,29.99,10.0,NNW,24.2,31.1,N/A,,Clear,330,2013-01-08 21:53:00
3:53 PM,37.0,19.0,48,30.03,10.0,NNW,15.0,-,N/A,,Clear,340,2013-01-08 22:53:00
4:53 PM,30.9,18.0,59,30.06,10.0,WSW,5.8,-,N/A,,Partly Cloudy,240,2013-01-08 23:53:00
5:53 PM,27.0,16.0,63,30.11,10.0,West,4.6,-,N/A,,Clear,270,2013-01-09 00:53:00
6:53 PM,23.0,15.1,72,30.13,10.0,West,5.8,-,N/A,,Partly Cloudy,270,2013-01-09 01:53:00
7:53 PM,21.0,14.0,74,30.13,10.0,SW,4.6,-,N/A,,Partly Cloudy,220,2013-01-09 02:53:00
8:53 PM,23.0,14.0,68,30.14,10.0,SSW,5.8,-,N/A,,Clear,200,2013-01-09 03:53:00
9:53 PM,21.2,12.2,68,30.02,10.0,South,4.6,-,N/A,,Clear,170,2013-01-09 04:53:00
10:53 PM,19.0,10.9,71,30.12,10.0,Calm,Calm,-,N/A,,Clear,0,2013-01-09 05:53:00
11:53 PM,18.0,10.9,74,30.11,10.0,NE,3.5,-,N/A,,Clear,50,2013-01-09 06:53:00